Andrews AFB, MD

4:18 PM EST on January 20, 2018 (GMT -0500)
Andrews Air Force Base-Naf

Weather History for KADW - August, 2013

Change the Weather History Date:

Saturday, August 10, 2013

  Actual Average Record
Temperature  
Mean Temperature 76 °F -  
Max Temperature 81 °F 83 °F 95 °F (2001)
Min Temperature 70 °F 65 °F 57 °F (1999)
Cooling Degree Days 11    
Growing Degree Days 26 (Base 50)    
Moisture  
Dew Point 67 °F    
Average Humidity 73    
Maximum Humidity 93    
Minimum Humidity 51    
Precipitation  
Precipitation 0.06 in - - ()
Sea Level Pressure  
Sea Level Pressure 30.04 in    
Wind  
Wind Speed 6 mph (WNW)    
Max Wind Speed 10 mph    
Max Gust Speed -    
Visibility 10 miles    
Events      
Averages and records for this station are not official NWS values.
T = Trace of Precipitation, MM = Missing Value Source: NWS Daily Summary

Daily Weather History Graph

Daily Weather History Graph

Search for Another Location

Airport or City:

Trip Planner

Search our weather history database for the weather conditions in past years. The results will help you decide how hot, cold, wet, or windy it might be!

Date:

Astronomy

Aug. 10, 2013 Rise Set
Actual Time 6:16 AM EDT 8:08 PM EDT
Civil Twilight 5:48 AM EDT 8:36 PM EDT
Nautical Twilight 5:13 AM EDT 9:11 PM EDT
Astronomical Twilight 4:35 AM EDT 9:49 PM EDT
Moon 9:58 AM EDT (8/10) 9:51 PM EDT (8/10)
Length of Visible Light 14h 48m
Length of Day
13h 51m
Waxing Crescent, 14% of the Moon is Illuminated
Aug 10
Waxing Crescent
Aug 14
First Quarter
Aug 20
Full
Aug 28
Last Quarter
Sep 5
New

Hourly Weather History & Observations

Time (EDT) Temp. Heat Index Dew Point Humidity Pressure Visibility Wind Dir Wind Speed Gust Speed Precip Events Conditions
12:58 AM 77.5 °F - 72.7 °F 85% 29.96 in 10.0 mi West 5.8 mph - N/A   Partly Cloudy
1:58 AM 79.0 °F - 69.6 °F 73% 29.99 in 10.0 mi WNW 6.9 mph - N/A   Scattered Clouds
2:35 AM 78.8 °F - 69.8 °F 74% 29.98 in 10.0 mi West 10.4 mph - N/A   Light Drizzle
2:54 AM 77.0 °F - 71.6 °F 83% 29.98 in 10.0 mi NW 8.1 mph - N/A   Mostly Cloudy
2:58 AM 77.0 °F - 71.6 °F 83% 29.98 in 10.0 mi NW 10.4 mph - 0.05 in   Mostly Cloudy
3:03 AM 77.0 °F - 71.6 °F 83% 29.98 in 10.0 mi NW 8.1 mph - N/A   Light Drizzle
3:12 AM 77.0 °F - 71.6 °F 83% 29.98 in 10.0 mi NW 9.2 mph - N/A   Scattered Clouds
3:29 AM 75.2 °F - 71.6 °F 89% 29.98 in 10.0 mi WNW 6.9 mph - N/A   Light Drizzle
3:39 AM 75.2 °F - 71.6 °F 89% 29.99 in 10.0 mi WNW 6.9 mph - N/A   Partly Cloudy
3:58 AM 75.9 °F - 71.6 °F 86% 29.98 in 10.0 mi NNW 9.2 mph - 0.00 in   Mostly Cloudy
4:58 AM 75.9 °F - 70.2 °F 82% 29.99 in 10.0 mi NW 8.1 mph - N/A   Partly Cloudy
5:58 AM 75.2 °F - 69.6 °F 83% 30.01 in 10.0 mi North 8.1 mph - N/A   Overcast
6:58 AM 74.3 °F - 69.1 °F 84% 30.03 in 10.0 mi NNE 1.2 mph - N/A   Mostly Cloudy
7:58 AM 75.9 °F - 69.1 °F 79% 30.04 in 10.0 mi NNW 9.2 mph - 0.01 in   Clear
8:58 AM 76.8 °F - 68.2 °F 75% 30.04 in 10.0 mi North 9.2 mph - N/A   Partly Cloudy
9:58 AM 77.7 °F - 66.0 °F 67% 30.08 in 10.0 mi North 8.1 mph - N/A   Scattered Clouds
10:58 AM 77.7 °F - 63.0 °F 60% 30.07 in 10.0 mi NNE 8.1 mph - N/A   Scattered Clouds
11:58 AM 77.5 °F - 60.1 °F 55% 30.09 in 10.0 mi NNE 3.5 mph - N/A   Partly Cloudy
12:34 PM 78.8 °F - 60.8 °F 54% 30.06 in 10.0 mi North 2.3 mph - N/A   Light Drizzle
12:43 PM 78.8 °F - 62.6 °F 57% 30.06 in 10.0 mi East 4.6 mph - N/A   Scattered Clouds
12:58 PM 77.4 °F - 62.1 °F 59% 30.08 in 10.0 mi East 3.5 mph - 0.00 in   Partly Cloudy
12:59 PM 77.0 °F - 62.6 °F 61% 30.06 in 10.0 mi East 2.3 mph - N/A   Light Drizzle
1:30 PM 77.0 °F - 66.2 °F 69% 30.07 in 10.0 mi South 3.5 mph - N/A   Partly Cloudy
1:32 PM 77.0 °F - 64.4 °F 65% 30.07 in 10.0 mi SSW 3.5 mph - N/A   Light Drizzle
1:58 PM 75.4 °F - 67.6 °F 77% 30.09 in 10.0 mi South 3.5 mph - 0.00 in   Light Drizzle
2:05 PM 77.0 °F - 64.4 °F 65% 30.06 in 10.0 mi SSE 3.5 mph - N/A   Partly Cloudy
2:58 PM 77.9 °F - 65.3 °F 65% 30.06 in 10.0 mi SSE 3.5 mph - 0.00 in   Scattered Clouds
3:58 PM 79.5 °F - 67.3 °F 66% 30.06 in 10.0 mi Variable 2.3 mph - N/A   Clear
4:37 PM 80.6 °F 82.7 °F 66.2 °F 61% 30.04 in 10.0 mi ESE 4.6 mph - N/A   Light Drizzle
4:40 PM 80.6 °F 82.7 °F 66.2 °F 61% 30.04 in 10.0 mi ESE 3.5 mph - N/A   Clear
4:43 PM 80.6 °F 82.7 °F 66.2 °F 61% 30.04 in 10.0 mi ESE 3.5 mph - N/A   Light Drizzle
4:46 PM 80.6 °F 83.2 °F 68.0 °F 65% 30.04 in 10.0 mi Variable 2.3 mph - N/A   Clear
4:58 PM 81.0 °F 83.4 °F 67.3 °F 63% 30.06 in 10.0 mi Variable 2.3 mph - N/A   Clear
5:58 PM 82.4 °F 83.4 °F 62.6 °F 51% 30.02 in 10.0 mi South 3.5 mph - N/A   Clear
6:58 PM 79.0 °F - 67.6 °F 68% 30.06 in 10.0 mi SSE 5.8 mph - N/A   Clear
7:58 PM 75.4 °F - 68.4 °F 79% 30.07 in 10.0 mi South 3.5 mph - N/A   Clear
8:58 PM 73.0 °F - 68.0 °F 84% 30.08 in 10.0 mi South 4.6 mph - N/A   Clear
9:58 PM 72.0 °F - 68.4 °F 88% 30.10 in 10.0 mi South 3.5 mph - N/A   Clear
10:59 PM 70.0 °F - 67.8 °F 93% 30.11 in 10.0 mi South 2.3 mph - N/A   Clear
11:58 PM 70.5 °F - 67.8 °F 91% 30.12 in 10.0 mi SSW 5.8 mph - N/A   Overcast